Regional Weather Roundup
Issued by NWS Charleston, SC

Current Version | Previous Version | Graphics & Text | Print | Product List | Glossary On
Versions: 1 2 3 4 5 6 7 8 9 10 11 12 13 14 15 16 17 18 19 20 21 22 23 24 25 26 27 28 29 30 31 32 33 34 35 36 37 38 39 40 41 42 43 44 45 46 47 48 49 50
000 ASUS42 KCHS 292113 RWRCHS REGIONAL WEATHER ROUNDUP NATIONAL WEATHER SERVICE CHARLESTON SC 500 PM EDT FRI JUL 29 2016 NOTE: "FAIR" INDICATES FEW OR NO CLOUDS BELOW 12,000 FEET WITH NO SIGNIFICANT WEATHER AND/OR OBSTRUCTIONS TO VISIBILITY. NOT ALL STATIONS ARE QUALITY CONTROLLED. USE DATA WITH CAUTION... ESPECIALLY DEWPOINT OBSERVATIONS. SCZ027-030-031-034>040-042>050-292200- ...SOUTHEAST SOUTH CAROLINA... CITY SKY/WX TMP DP RH WIND PRES REMARKS N CHARLESTON MOSUNNY 99 69 37 SW12 29.91F HX 105 WATERFRONT PRK N/A 94 74 52 SW7 29.92F HX 104 MOUNT PLEASANT FAIR 97 73 46 S13 29.91F HX 107 JOHNS ISLAND FAIR 93 79 62 S16G24 29.93S HX 110 PINOPOLIS N/A 93 72 49 W10 29.83F HX 100 MONCKS CORNER FAIR 93 63 36 W3 29.91S HAZE HX 94 SUMMERVILLE NOT AVBL BEAUFORT MCAS MOSUNNY 100 66 32 SW15 29.93F HX 104 BEAUFORT ARPT FAIR 99 68 36 W10G18 29.93F HX 104 HILTON HEAD IS MOSUNNY 95 79 59 S12G23 29.95F HX 112 WALTERBORO PTCLDY 99 64 32 W9 29.93F HX 101 ALLENDALE FAIR 97 68 38 SW9G16 29.92S HX 101 ...SOUTHERN MIDLANDS AND PEE DEE... CITY SKY/WX TMP DP RH WIND PRES REMARKS GEORGETOWN FAIR 95 68 41 W8G17 29.91F HX 99 KINGSTREE FAIR 95 68 41 SW6 29.90F HX 99 ORANGEBURG MOSUNNY 97 68 38 W14 29.92S HX 102 BARNWELL NOT AVBL AIKEN FAIR 95 64 36 W14G21 29.96F HX 97 MANNING FAIR 95 68 41 W7G17 29.90F HX 99 COLUMBIA PTSUNNY 97 68 38 VRB7 29.89F HX 102 SUMTER LGT RAIN 93 70 46 SW8 29.88S HX 99 FLORENCE MOSUNNY 96 70 42 W13 29.90F HX 102 MYRTLE BEACH MOSUNNY 97 70 41 W9 29.91F HX 103 N MYRTLE BEACH MOSUNNY 95 72 47 VRB7 29.90F HX 103 $$ GAZ063-065-086>088-099>101-113>116-118-119-134>141-150-292200- ...SOUTHEAST GEORGIA... CITY SKY/WX TMP DP RH WIND PRES REMARKS SAVANNAH ARPT MOSUNNY 97 66 36 W9 29.94F HX 100 HUNTER AAF MOSUNNY 96 80 58 S5 29.92F HX 116 FORT STEWART NOT AVBL STATESBORO SUNNY 98 70 39 W8 29.94F HX 104 SYLVANIA NOT AVBL CLAXTON FAIR 97 67 37 SW3 29.93F HX 101 ...CSRA...CENTRAL AND FAR SOUTHEAST GEORGIA... CITY SKY/WX TMP DP RH WIND PRES REMARKS THOMSON NOT AVBL AUGUSTA-BUSH MOSUNNY 99 65 32 W12G24 29.91F HX 102 AUGUSTA-DANIEL MOSUNNY 96 67 38 W10G17 29.94F HX 100 SWAINSBORO MOCLDY 97 64 34 W12 29.96S HX 99 VIDALIA MOSUNNY 99 63 30 W8G16 29.95F HX 100 EASTMAN FAIR 98 42 14 W6 29.98F HX 93 HAZLEHURST FAIR 98 65 34 CALM 29.95F HX 101 ALMA MOSUNNY 97 66 36 W5 29.96F HX 100 WAYCROSS MOSUNNY 103 72 36 SW14 29.96F HX 113 JESUP FAIR 99 72 41 W6 29.95F HX 107 BAXLEY FAIR 99 70 39 SW10 29.95F HX 105 BRUNSWICK MOSUNNY 99 72 41 W12 29.96F HX 107 SAINT SIMONS SUNNY 93 77 59 S13G21 29.96S HX 107 $$ SCZ027-028-034-036>038-045-046-048>050-GAZ119-141-292200- ...LAKE AND SUPPLEMENTAL COASTAL OBSERVATIONS... STATION/POSITION TIME TEMP WIND PRES WAVE SWELL AIR SEA DIR/SP/G HT/PER HT/PER/DIR (UTC) (F) (DEG/KT/KT) (MB) (FT/S) (FT/S/D) WINYAH BAY NOT AVBL LAKE MURRAY 2000 92 260/ 10/ 14 1012.2F ACE BASIN NERRS NOT AVBL FORT PULASKI 2000 92 88 180/ 7/ 13 1014.6F SAPELO ISLAND 2000 96 190/ 9 1015.0S $$ ANZ835-935-AMZ111-154-330-350-352-354-370-450-454-472-292200- ...C-MAN AND BUOY OBSERVATIONS... STATION/POSITION TIME TEMP WIND PRES WAVE SWELL AIR SEA DIR/SP/G HT/PER HT/PER/DIR (UTC) (F) (DEG/KT/KT) (MB) (FT/S) (FT/S/D) BUOY 41004 2050 86 86 210/ 17/ 21 1013.2F 3/ 5 2/150/ 8 BUOY 41008 2050 87 87 160/ 16/ 17 1014.2F 2/ 5 FOLLY BEACH CMAN 2000 88 200/ 16/ 19 1014.1F CAPERS NEARSHORE 2008 86 85 220/ 17/ 23 1013.2F FRIPP NEARSHORE 2008 88 88 200/ 16/ 21 1013.5F STATION/POSITION TIME TEMP WIND PRES WAVE SWELL AIR SEA DIR/SP/G HT/PER HT/PER/DIR (UTC) (F) (DEG/KT/KT) (MB) (FT/S) (FT/S/D) 5E ST. MARYS GA 2101 87 N/A 2/ 4 FRYING PAN BUOY 2000 86 85 220/ 16/ 19 1012.9F BUOY 41025 2050 87 85 230/ 17/ 21 1011.8S 3/ 6 2/ 10/ 9 CAPE LOOKOUT NC 2000 87 220/ 11/ 17 1011.8F BUOY 41002 2050 85 86 240/ 10/ 12 1015.5F 4/ 6 3/280/ 6 BUOY 41010 2020 86 87 280/ 6/ 8 1016.9F ST AUGUSTINE FL 2100 85 87 130/ 12/ 13 1016.5F $$

USA.gov is the U.S. government's official web portal to all federal, state and local government web resources and services.